| time (UTC) | temp C | wind direction | speed KPH | gust KPH | rain 1hr cm | rain 24hr cm | rain mn cm | humidity % | barometer mb |
| 20260506194528 | 27 | 244 | 6.4 | 17.7 | 0.00 | 0.00 | 0.00 | 59 | 1013.5 |
| 20260506193030 | 27 | 240 | 4.8 | 14.5 | 0.00 | 0.00 | 0.00 | 60 | 1013.7 |
| 20260506191527 | 27 | 185 | 4.8 | 16.1 | 0.00 | 0.00 | 0.00 | 58 | 1014.2 |
| 20260506190028 | 27 | 185 | 4.8 | 11.3 | 0.00 | 0.00 | 0.00 | 61 | 1014.1 |
| 20260506184526 | 27 | 156 | 3.2 | 14.5 | 0.00 | 0.00 | 0.00 | 61 | 1014.5 |
| 20260506183033 | 27 | 191 | 4.8 | 17.7 | 0.00 | 0.00 | 0.00 | 59 | 1014.4 |
| 20260506181531 | 27 | 184 | 3.2 | 12.9 | 0.00 | 0.00 | 0.00 | 62 | 1014.5 |
| 20260506180030 | 27 | 217 | 4.8 | 14.5 | 0.00 | 0.00 | 0.00 | 60 | 1014.5 |
| 20260506174527 | 27 | 0 | 3.2 | 11.3 | 0.00 | 0.00 | 0.00 | 58 | 1014.4 |
| 20260506173038 | 26 | 153 | 4.8 | 14.5 | 0.00 | 0.00 | 0.00 | 56 | 1014.6 |
| 20260506171530 | 25 | 198 | 3.2 | 9.7 | 0.00 | 0.00 | 0.00 | 63 | 1014.7 |
| 20260506170027 | 25 | 219 | 3.2 | 14.5 | 0.00 | 0.00 | 0.00 | 63 | 1015.2 |
| 20260506164530 | 25 | 138 | 3.2 | 14.5 | 0.00 | 0.00 | 0.00 | 65 | 1015.1 |
| 20260506163030 | 24 | 239 | 4.8 | 12.9 | 0.00 | 0.00 | 0.00 | 66 | 1015.4 |
| 20260506161531 | 23 | 183 | 3.2 | 11.3 | 0.00 | 0.00 | 0.00 | 68 | 1015.8 |
| 20260506160029 | 22 | 0 | 3.2 | 12.9 | 0.00 | 0.00 | 0.00 | 70 | 1015.9 |
| 20260506154530 | 22 | 248 | 3.2 | 11.3 | 0.00 | 0.00 | 0.00 | 70 | 1016.0 |
| 20260506153029 | 22 | 246 | 4.8 | 12.9 | 0.00 | 0.00 | 0.00 | 69 | 1016.2 |
| 20260506151528 | 22 | 113 | 4.8 | 14.5 | 0.00 | 0.00 | 0.00 | 69 | 1015.8 |
| 20260506150030 | 22 | 190 | 1.6 | 9.7 | 0.00 | 0.00 | 0.00 | 73 | 1015.8 |
| 20260506144531 | 22 | 154 | 4.8 | 16.1 | 0.00 | 0.00 | 0.00 | 75 | 1015.6 |
| 20260506143034 | 21 | 155 | 3.2 | 11.3 | 0.00 | 0.00 | 0.00 | 78 | 1015.5 |
| 20260506141528 | 21 | 198 | 3.2 | 12.9 | 0.00 | 0.00 | 0.00 | 80 | 1015.2 |
| 20260506140028 | 21 | 264 | 4.8 | 9.7 | 0.00 | 0.00 | 0.00 | 82 | 1015.1 |
| 20260506134528 | 20 | 194 | 4.8 | 14.5 | 0.00 | 0.00 | 0.00 | 82 | 1014.9 |
| 20260506133031 | 20 | 249 | 3.2 | 12.9 | 0.00 | 0.00 | 0.00 | 83 | 1014.9 |
| 20260506131533 | 19 | 187 | 1.6 | 8.0 | 0.00 | 0.00 | 0.00 | 85 | 1014.9 |
| 20260506130030 | 18 | 0 | 1.6 | 6.4 | 0.00 | 0.00 | 0.00 | 85 | 1015.0 |
| 20260506124534 | 18 | 172 | 1.6 | 8.0 | 0.00 | 0.00 | 0.00 | 86 | 1014.8 |
| 20260506123037 | 18 | 234 | 1.6 | 8.0 | 0.00 | 0.00 | 0.00 | 86 | 1014.8 |
| 20260506121529 | 17 | 205 | 1.6 | 6.4 | 0.00 | 0.00 | 0.00 | 86 | 1014.9 |
| 20260506120036 | 17 | 0 | 0.0 | 3.2 | 0.00 | 0.00 | 0.00 | 86 | 1014.7 |
| 20260506114530 | 17 | 0 | 0.0 | 3.2 | 0.00 | 0.00 | 0.00 | 86 | 1014.6 |
| 20260506113028 | 17 | 211 | 0.0 | 3.2 | 0.00 | 0.00 | 0.00 | 86 | 1014.7 |
| 20260506111529 | 17 | 0 | 0.0 | 3.2 | 0.00 | 0.00 | 0.00 | 85 | 1014.4 |
| 20260506110028 | 17 | 203 | 0.0 | 3.2 | 0.00 | 0.00 | 0.00 | 85 | 1014.2 |
| 20260506104529 | 17 | 188 | 0.0 | 3.2 | 0.00 | 0.00 | 0.00 | 85 | 1013.8 |
| 20260506103032 | 17 | 221 | 0.0 | 3.2 | 0.00 | 0.00 | 0.00 | 84 | 1013.4 |
| 20260506101530 | 17 | 0 | 1.6 | 3.2 | 0.00 | 0.00 | 0.00 | 84 | 1013.2 |
| 20260506100029 | 17 | 0 | 0.0 | 4.8 | 0.00 | 0.00 | 0.00 | 83 | 1013.5 |
| 20260506094535 | 17 | 0 | 0.0 | 4.8 | 0.00 | 0.00 | 0.00 | 82 | 1013.3 |
| 20260506093041 | 16 | 214 | 1.6 | 4.8 | 0.00 | 0.00 | 0.00 | 82 | 1013.1 |
| 20260506091526 | 16 | 0 | 1.6 | 3.2 | 0.00 | 0.00 | 0.00 | 81 | 1013.1 |
| 20260506090028 | 16 | 211 | 1.6 | 3.2 | 0.00 | 0.00 | 0.00 | 81 | 1013.3 |
| 20260506084532 | 15 | 0 | 0.0 | 3.2 | 0.00 | 0.00 | 0.00 | 81 | 1013.3 |
| 20260506083031 | 15 | 0 | 0.0 | 1.6 | 0.00 | 0.00 | 0.00 | 80 | 1013.4 |
| 20260506081527 | 15 | 0 | 0.0 | 1.6 | 0.00 | 0.00 | 0.00 | 79 | 1013.7 |
| 20260506073030 | 14 | 0 | 0.0 | 0.0 | 0.00 | 0.00 | 0.00 | 83 | 1013.9 |
| 20260506071530 | 15 | 0 | 0.0 | 0.0 | 0.00 | 0.00 | 0.00 | 82 | 1013.8 |
| 20260506061534 | 15 | 0 | 0.0 | 0.0 | 0.00 | 0.00 | 0.00 | 80 | 1013.9 |
| 20260506044536 | 16 | 0 | 0.0 | 0.0 | 0.00 | 0.00 | 0.00 | 78 | 1013.8 |
| 20260506043030 | 16 | 0 | 0.0 | 0.0 | 0.00 | 0.00 | 0.00 | 77 | 1013.9 |
| 20260506041530 | 16 | 0 | 0.0 | 0.0 | 0.00 | 0.00 | 0.00 | 75 | 1014.0 |
| 20260506040027 | 16 | 0 | 0.0 | 0.0 | 0.00 | 0.00 | 0.00 | 75 | 1014.3 |
| 20260506034528 | 16 | 0 | 0.0 | 0.0 | 0.00 | 0.00 | 0.00 | 74 | 1014.2 |
| 20260506033028 | 16 | 0 | 0.0 | 1.6 | 0.00 | 0.00 | 0.00 | 72 | 1014.2 |
| 20260506031534 | 16 | 0 | 0.0 | 0.0 | 0.00 | 0.00 | 0.00 | 71 | 1013.8 |
| 20260506030028 | 17 | 0 | 0.0 | 1.6 | 0.00 | 0.00 | 0.00 | 70 | 1014.0 |
| 20260506024534 | 17 | 0 | 0.0 | 0.0 | 0.00 | 0.00 | 0.00 | 69 | 1014.1 |
| 20260506023030 | 17 | 0 | 0.0 | 1.6 | 0.00 | 0.00 | 0.00 | 69 | 1014.1 |
| 20260506021526 | 18 | 0 | 0.0 | 0.0 | 0.00 | 0.00 | 0.00 | 65 | 1013.9 |
| 20260506020028 | 18 | 0 | 0.0 | 1.6 | 0.00 | 0.00 | 0.00 | 64 | 1014.0 |
| 20260506014530 | 19 | 0 | 0.0 | 0.0 | 0.00 | 0.00 | 0.00 | 63 | 1014.1 |
| 20260506013028 | 20 | 0 | 0.0 | 0.0 | 0.00 | 0.00 | 0.00 | 61 | 1013.8 |
| 20260506011530 | 20 | 0 | 0.0 | 0.0 | 0.00 | 0.00 | 0.00 | 57 | 1013.6 |
| 20260506010032 | 20 | 0 | 0.0 | 1.6 | 0.00 | 0.00 | 0.00 | 57 | 1013.7 |
| 20260506004537 | 21 | 0 | 0.0 | 0.0 | 0.00 | 0.00 | 0.00 | 57 | 1013.6 |
| 20260506003030 | 22 | 0 | 0.0 | 1.6 | 0.00 | 0.00 | 0.00 | 55 | 1013.6 |
| 20260506001528 | 23 | 0 | 0.0 | 0.0 | 0.00 | 0.00 | 0.00 | 48 | 1013.5 |
| 20260506000027 | 23 | 0 | 0.0 | 3.2 | 0.00 | 0.00 | 0.00 | 46 | 1013.6 |
| 20260505234600 | 24 | 0 | 0.0 | 4.8 | 0.00 | 0.00 | 0.00 | 44 | 1013.5 |
| 20260505233026 | 25 | 182 | 0.0 | 6.4 | 0.00 | 0.00 | 0.00 | 42 | 1013.3 |
| 20260505231529 | 25 | 211 | 1.6 | 8.0 | 0.00 | 0.00 | 0.00 | 39 | 1013.2 |
| 20260505230028 | 25 | 183 | 1.6 | 12.9 | 0.00 | 0.00 | 0.00 | 38 | 1013.2 |
| 20260505224533 | 26 | 0 | 3.2 | 9.7 | 0.00 | 0.00 | 0.00 | 40 | 1013.1 |
| 20260505223029 | 26 | 200 | 3.2 | 11.3 | 0.00 | 0.00 | 0.00 | 39 | 1013.1 |
| 20260505221530 | 26 | 201 | 3.2 | 11.3 | 0.00 | 0.00 | 0.00 | 38 | 1013.0 |
| 20260505220029 | 27 | 223 | 1.6 | 8.0 | 0.00 | 0.00 | 0.00 | 39 | 1013.0 |
| 20260505214535 | 27 | 140 | 1.6 | 6.4 | 0.00 | 0.00 | 0.00 | 38 | 1013.1 |
| 20260505213030 | 27 | 174 | 3.2 | 8.0 | 0.00 | 0.00 | 0.00 | 39 | 1013.2 |
| 20260505211530 | 27 | 133 | 0.0 | 9.7 | 0.00 | 0.00 | 0.00 | 43 | 1013.3 |
| 20260505210030 | 27 | 223 | 1.6 | 6.4 | 0.00 | 0.00 | 0.00 | 45 | 1013.3 |
| 20260505204529 | 27 | 134 | 1.6 | 6.4 | 0.00 | 0.00 | 0.00 | 41 | 1013.5 |
| 20260505203028 | 27 | 173 | 3.2 | 8.0 | 0.00 | 0.00 | 0.00 | 41 | 1013.5 |
| 20260505201532 | 27 | 173 | 3.2 | 11.3 | 0.00 | 0.00 | 0.00 | 42 | 1013.8 |
| 20260505200031 | 27 | 144 | 3.2 | 12.9 | 0.00 | 0.00 | 0.00 | 40 | 1013.8 |